Regional Weather Roundup
Issued by NWS Memphis, TN

Home | Current Version | Previous Version | Text Only | Print | Product List | Glossary On
Versions: 1 2 3 4 5 6 7 8 9 10 11 12 13 14 15 16 17 18 19 20 21 22 23 24 25 26 27 28 29 30 31 32 33 34 35 36 37 38 39 40 41 42 43 44 45 46 47 48 49 50
000
ASUS44 KMEG 220810
RWRMEG
MEMPHIS CWA HOURLY WEATHER ROUNDUP
NATIONAL WEATHER SERVICE MEMPHIS TN
200 AM CST TUE JAN 22 2019

...WEST TENNESSEE...

CITY           SKY/WX    TMP DP  RH WIND       PRES   REMARKS
MEMPHIS INTL   MOCLDY    36  24  62 SE9       30.24R WCI  29
NWS MEMPHIS      N/A     34 N/A N/A MISG        N/A
JACKSON        FAIR      34  15  46 S7        30.29R WCI  28
COVINGTON      CLEAR     32  23  69 SE8       30.25S WCI  25
SOMERVILLE     CLEAR     36  19  51 SE9G17    30.24S WCI  29
BOLIVAR        CLEAR     32  18  55 SE7       30.28S WCI  26
LEXINGTON      CLEAR     30  14  51 SE5       30.30R WCI  25
SELMER         CLEAR     34  14  44 S9G16     30.29R WCI  26
DYERSBURG      FAIR      32  19  58 SE10      30.26S WCI  24
UNION CITY     CLEAR     30  18  59 SE7       30.27R WCI  23


...EASTERN ARKANSAS...

CITY           SKY/WX    TMP DP  RH WIND       PRES   REMARKS
JONESBORO      FLURRIES  36  28  73 S15       30.19S WCI  27
WEST MEMPHIS   MOCLDY    38  29  70 SE14      30.22R WCI  30
BATESVILLE     CLOUDY    37  28  70 SE10      30.14  WCI  30
NEWPORT        CLOUDY    36  29  75 S9        30.18R WCI  29
WALNUT RIDGE   CLOUDY    35  27  72 S13       30.17F WCI  26
BLYTHEVILLE    FAIR      34  21  59 S13G21    30.23S WCI  25
SEARCY         CLOUDY    40  31  70 SE8       30.16S WCI  34
STUTTGART      CLOUDY    42  31  64 SE14      30.16F
PINE BLUFF     CLOUDY    42  31  64 SE9       30.15S
MONTICELLO     CLOUDY    45  31  58 SE7       30.16S


...NORTH MISSISSIPPI...

CITY           SKY/WX    TMP DP  RH WIND       PRES   REMARKS
TUPELO         FAIR      33  19  56 SE3       30.31R
OXFORD         FAIR      34  23  64 SE9       30.29R WCI  26
BATESVILLE     CLOUDY    39  27  60 S10G18    30.25R WCI  32
OLIVE BRANCH   PTCLDY    32  23  69 MISG      30.24S
TUNICA           N/A     37  28  70 SE14      30.24R WCI  29
CLARKSDALE     CLOUDY    41  30  65 SE13      30.22S
CORINTH        FAIR      32  16  51 SE7       30.31S WCI  26
GREENWOOD      FAIR      38  26  62 VRB6      30.24S WCI  33
COLUMBUS       FAIR      31  20  66 SE6       30.32R WCI  25
STARKVILLE     FAIR      34  27  75 SE3       30.31F
GOLDEN TRIANGL FAIR      33  23  66 SE7       30.32S WCI  27


...SOUTHEAST MISSOURI...

CITY           SKY/WX    TMP DP  RH WIND       PRES   REMARKS
KENNETT        FAIR      36  25  64 SE15G24   30.21R WCI  26
MALDEN         FAIR      32  25  74 SE7       30.24S WCI  26
WEST PLAINS    CLOUDY    33  26  75 SE15G24   30.07S WCI  23
POPLAR BLUFF   FAIR      31  23  72 SE8       30.21R WCI  23
CAPE GIRARDEAU FAIR      28  17  63 SE14      30.23S WCI  17


...NORTHWEST ALABAMA...

CITY           SKY/WX    TMP DP  RH WIND       PRES   REMARKS
MUSCLE SHOALS  FAIR      31  17  56 E7        30.35R WCI  24


...MIDDLE TENNESSEE...

CITY           SKY/WX    TMP DP  RH WIND       PRES   REMARKS
NASHVILLE      FAIR      26  12  55 E7        30.36R WCI  18
CLARKSVILLE    FAIR      23  12  62 E6        30.33S WCI  16
DICKSON        SUNNY     30  10  43 S7G13     30.29R WCI  23
COLUMBIA       CLEAR     34  10  37 S6G14     30.31S WCI  29
LAWRENCEBURG   SUNNY     30  12  47 SE14      30.32R WCI  20
LEWISBURG      SUNNY     23  18  80 CALM      30.33S


...WESTERN KENTUCKY...

CITY           SKY/WX    TMP DP  RH WIND       PRES   REMARKS
PADUCAH        FAIR      27  15  61 SE9       30.27F WCI  18
FORT CAMPBELL  FAIR      23  14  67 E5        30.32S WCI  17


...CENTRAL ARKANSAS...

CITY           SKY/WX    TMP DP  RH WIND       PRES   REMARKS
LITTLE ROCK    CLOUDY    42  31  64 SE10      30.13S


SKY/WX REPORTED AS FAIR MEANS FEW OR NO CLOUDS BELOW
12 THOUSAND FEET.




USA.gov is the U.S. government's official web portal to all federal, state and local government web resources and services.